Location: Tierra del Sol
(32.6128°N, 116.3319°W)
Time: 04:03:53
(UTC-07:00)

Vanguard 2 - All Passes

Search period start: 14 August 2018 00:00
Search period end: 24 August 2018 00:00
Orbit: 554 x 2938 km, 32.9° (Epoch: 12 August)

Date Brightness Start Highest point End Pass type
(mag) Time Alt. Az. Time Alt. Az. Time Alt. Az.
14 Aug - 08:50:21 10° SSE 08:50:50 10° SSE 08:51:17 10° SE daylight
14 Aug - 10:54:50 10° SW 10:58:40 47° SSE 11:02:50 10° E daylight
14 Aug - 13:02:33 10° W 13:06:46 86° N 13:12:49 10° E daylight
14 Aug - 15:10:07 10° W 15:15:28 67° SSW 15:24:18 10° ESE daylight
14 Aug - 17:18:22 10° W 17:24:56 33° SSW 17:35:00 10° SSE daylight
14 Aug - 19:31:56 10° SW 19:35:33 12° SSW 19:39:37 10° SSW daylight
15 Aug - 09:05:50 10° SSW 09:08:50 17° SSE 09:11:32 10° ESE daylight
15 Aug - 11:12:45 10° WSW 11:16:40 66° SSE 11:21:03 10° E daylight
15 Aug - 13:20:37 10° W 13:24:54 88° N 13:31:09 10° E daylight
15 Aug - 15:28:12 10° W 15:33:36 54° SSW 15:42:23 10° SE daylight
15 Aug - 17:37:07 10° WSW 17:43:12 24° SSW 17:51:54 10° SSE daylight
16 Aug - 09:22:58 10° SW 09:26:50 27° SSE 09:30:13 10° E daylight
16 Aug - 11:30:48 10° WSW 11:34:44 83° S 11:39:15 10° E daylight
16 Aug - 13:38:40 10° W 13:43:02 83° S 13:49:27 10° ESE daylight
16 Aug - 15:46:24 10° W 15:51:46 41° SSW 16:00:13 10° SE daylight
16 Aug - 17:56:29 10° WSW 18:01:32 17° SSW 18:08:01 10° S daylight
17 Aug - 07:35:12 10° S 07:36:33 11° SSE 07:37:48 10° SE daylight
17 Aug - 09:40:35 10° SW 09:44:50 40° SSE 09:48:34 10° E daylight
17 Aug - 11:48:53 10° W 11:52:50 87° N 11:57:27 10° E daylight
17 Aug - 13:56:43 10° W 14:01:07 69° SSW 14:07:41 10° ESE daylight
17 Aug - 16:04:47 10° W 16:09:57 31° SSW 16:17:42 10° SE daylight
17 Aug - 18:18:05 10° SW 18:19:53 11° SSW 18:21:50 10° SSW daylight
18 Aug - 07:50:52 10° SSW 07:54:40 18° SSE 07:57:46 10° ESE daylight
18 Aug - 09:58:28 10° WSW 10:02:52 57° SSE 10:06:45 10° E daylight
18 Aug - 12:07:00 10° W 12:10:56 86° N 12:15:40 10° E daylight
18 Aug - 14:14:49 10° W 14:19:13 54° SSW 14:25:46 10° ESE daylight
18 Aug - 16:23:28 10° WSW 16:28:11 22° SSW 16:34:43 10° SSE daylight
19 Aug - 08:07:55 10° SW 08:12:48 26° SSE 08:16:30 10° E daylight
19 Aug - 10:16:31 10° WSW 10:20:56 75° SSE 10:24:53 10° E daylight
19 Aug - 12:25:05 10° W 12:29:02 88° S 12:33:53 10° E daylight
19 Aug - 14:32:59 10° W 14:37:20 40° SSW 14:43:39 10° SE daylight
19 Aug - 16:42:52 10° WSW 16:46:27 15° SSW 16:50:54 10° S daylight
20 Aug - 06:18:54 10° S 06:22:02 13° SSE 06:24:42 10° SE daylight
20 Aug - 08:25:28 10° SW 08:30:53 38° SSE 08:34:51 10° E daylight
20 Aug - 10:34:39 10° W 10:39:00 89° S 10:43:00 10° E daylight
20 Aug - 12:43:10 10° W 12:47:07 74° SSW 12:52:04 10° ESE daylight
20 Aug - 14:51:20 10° W 14:55:27 28° SSW 15:01:12 10° SE daylight
21 Aug - 06:34:54 10° SSW 06:40:17 20° SSE 06:44:18 10° ESE daylight
21 Aug - 08:43:20 10° WSW 08:48:57 53° SSE 08:53:02 10° E daylight
21 Aug - 10:52:50 10° W 10:57:06 85° N 11:01:07 10° E daylight
21 Aug - 13:01:17 10° W 13:05:11 56° SSW 13:10:08 10° ESE daylight
21 Aug - 15:10:01 10° WSW 15:13:36 19° SSW 15:18:17 10° SSE daylight
22 Aug - 06:51:54 10° SW 06:58:28 28° SSE 07:03:02 10° E daylight
22 Aug - 09:01:24 10° WSW 09:07:02 70° SSE 09:11:08 10° E daylight
22 Aug - 11:11:00 10° W 11:15:12 88° N 11:19:16 10° E daylight
22 Aug - 13:19:27 10° W 13:23:14 40° SSW 13:28:01 10° SE daylight
22 Aug - 15:29:34 10° SW 15:31:47 12° SSW 15:34:21 10° S daylight
23 Aug - 05:02:02 10° S 05:07:11 15° SSE 05:11:18 10° ESE visible
23 Aug - 07:09:23 10° SW 07:16:38 39° SSE 07:21:24 10° E daylight
23 Aug - 09:19:35 10° W 09:25:07 84° S 09:29:12 10° E daylight
23 Aug - 11:29:10 10° W 11:33:18 81° S 11:37:23 10° ESE daylight
23 Aug - 13:37:47 10° W 13:41:18 27° SSW 13:45:38 10° SE daylight
